Time,TemperatureF,DewpointF,PressureIn,WindDirection,WindDirectionDegrees,WindSpeedMPH,WindSpeedGustMPH,Humidity,HourlyPrecipIn,Conditions,Clouds,dailyrainin,SoftwareType,DateUTC
2013-07-28 00:02:00,64.0,61.0,27.80,North,11,1.0,2.0,91,0.00,,,0.00,,2013-07-28 04:02:00,
2013-07-28 00:12:00,64.0,61.0,27.80,North,11,1.0,2.0,91,0.00,,,0.00,,2013-07-28 04:12:00,
2013-07-28 00:22:00,64.0,62.0,27.80,East,92,1.0,2.0,92,0.00,,,0.00,,2013-07-28 04:22:00,
2013-07-28 00:32:00,63.0,61.0,27.80,NE,34,1.0,3.0,93,0.00,,,0.00,,2013-07-28 04:32:00,
2013-07-28 00:43:00,63.0,61.0,27.80,NE,34,1.0,3.0,93,0.00,,,0.00,,2013-07-28 04:43:00,
2013-07-28 00:53:00,63.0,61.0,27.79,ESE,106,0.0,2.0,92,0.00,,,0.00,,2013-07-28 04:53:00,
2013-07-28 01:02:00,63.0,61.0,27.79,NE,37,1.0,1.0,93,0.00,,,0.00,,2013-07-28 05:02:00,
2013-07-28 01:12:00,63.0,61.0,27.79,NE,37,1.0,1.0,93,0.00,,,0.00,,2013-07-28 05:12:00,
2013-07-28 01:22:00,63.0,61.0,27.79,ENE,61,0.0,1.0,93,0.00,,,0.00,,2013-07-28 05:22:00,
2013-07-28 01:32:00,63.0,61.0,27.80,East,97,1.0,2.0,94,0.00,,,0.00,,2013-07-28 05:32:00,
2013-07-28 01:43:00,63.0,61.0,27.80,East,97,1.0,2.0,94,0.00,,,0.00,,2013-07-28 05:43:00,
2013-07-28 01:53:00,63.0,61.0,27.79,SSE,167,3.0,5.0,94,0.00,,,0.00,,2013-07-28 05:53:00,
2013-07-28 02:02:00,62.0,60.0,27.79,ESE,106,2.0,4.0,94,0.00,,,0.00,,2013-07-28 06:02:00,
2013-07-28 02:12:00,62.0,60.0,27.79,ESE,106,2.0,4.0,94,0.00,,,0.00,,2013-07-28 06:12:00,
2013-07-28 02:22:00,61.0,60.0,27.80,ESE,106,0.0,1.0,95,0.00,,,0.00,,2013-07-28 06:22:00,
2013-07-28 02:32:00,61.0,60.0,27.80,ESE,106,0.0,1.0,95,0.00,,,0.00,,2013-07-28 06:32:00,
2013-07-28 02:43:00,61.0,60.0,27.80,ESE,106,0.0,1.0,95,0.00,,,0.00,,2013-07-28 06:43:00,
2013-07-28 02:53:00,61.0,60.0,27.79,ESE,106,0.0,1.0,95,0.00,,,0.00,,2013-07-28 06:53:00,
2013-07-28 03:02:00,61.0,60.0,27.79,ESE,108,0.0,1.0,96,0.00,,,0.00,,2013-07-28 07:02:00,
2013-07-28 03:12:00,61.0,60.0,27.79,ESE,108,0.0,1.0,96,0.00,,,0.00,,2013-07-28 07:12:00,
2013-07-28 03:23:00,61.0,60.0,27.79,ESE,106,0.0,1.0,96,0.00,,,0.00,,2013-07-28 07:23:00,
2013-07-28 03:32:00,61.0,60.0,27.80,ESE,106,0.0,1.0,97,0.00,,,0.00,,2013-07-28 07:32:00,
2013-07-28 03:43:00,61.0,60.0,27.80,ESE,106,0.0,1.0,97,0.00,,,0.00,,2013-07-28 07:43:00,
2013-07-28 03:53:00,61.0,60.0,27.80,ESE,106,0.0,1.0,97,0.00,,,0.00,,2013-07-28 07:53:00,
2013-07-28 04:02:00,60.0,59.0,27.79,North,350,1.0,1.0,96,0.00,,,0.00,,2013-07-28 08:02:00,
2013-07-28 04:12:00,60.0,59.0,27.79,North,350,1.0,1.0,96,0.00,,,0.00,,2013-07-28 08:12:00,
2013-07-28 04:23:00,60.0,59.0,27.79,North,349,1.0,1.0,97,0.00,,,0.00,,2013-07-28 08:23:00,
2013-07-28 04:33:00,60.0,59.0,27.78,ESE,103,0.0,2.0,97,0.00,,,0.00,,2013-07-28 08:33:00,
2013-07-28 04:43:00,60.0,59.0,27.78,ESE,103,0.0,2.0,97,0.00,,,0.00,,2013-07-28 08:43:00,
2013-07-28 04:53:00,60.0,59.0,27.78,ESE,103,0.0,1.0,97,0.00,,,0.00,,2013-07-28 08:53:00,
2013-07-28 05:02:00,60.0,59.0,27.78,East,84,0.0,1.0,97,0.00,,,0.00,,2013-07-28 09:02:00,
2013-07-28 05:12:00,60.0,59.0,27.78,East,84,0.0,1.0,97,0.00,,,0.00,,2013-07-28 09:12:00,
2013-07-28 05:22:00,60.0,59.0,27.78,East,84,0.0,1.0,97,0.00,,,0.00,,2013-07-28 09:22:00,
2013-07-28 05:32:00,60.0,59.0,27.79,East,84,0.0,1.0,97,0.00,,,0.00,,2013-07-28 09:32:00,
2013-07-28 05:43:00,60.0,59.0,27.79,East,84,0.0,1.0,97,0.00,,,0.00,,2013-07-28 09:43:00,
2013-07-28 05:53:00,60.0,59.0,27.79,East,85,0.0,0.0,97,0.00,,,0.00,,2013-07-28 09:53:00,
2013-07-28 06:02:00,61.0,60.0,27.79,East,85,0.0,1.0,98,0.00,,,0.00,,2013-07-28 10:02:00,
2013-07-28 06:12:00,61.0,60.0,27.79,East,85,0.0,1.0,98,0.00,,,0.00,,2013-07-28 10:12:00,
2013-07-28 06:22:00,61.0,60.0,27.78,ESE,110,1.0,2.0,97,0.00,,,0.00,,2013-07-28 10:22:00,
2013-07-28 06:33:00,60.0,59.0,27.79,ESE,113,0.0,1.0,97,0.00,,,0.00,,2013-07-28 10:33:00,
2013-07-28 06:42:00,60.0,59.0,27.79,ESE,113,0.0,1.0,97,0.00,,,0.00,,2013-07-28 10:42:00,
2013-07-28 06:53:00,61.0,60.0,27.79,ESE,113,0.0,1.0,97,0.00,,,0.00,,2013-07-28 10:53:00,
2013-07-28 07:02:00,61.0,60.0,27.79,ESE,113,0.0,1.0,97,0.00,,,0.00,,2013-07-28 11:02:00,
2013-07-28 07:12:00,61.0,60.0,27.80,ESE,113,1.0,1.0,98,0.00,,,0.00,,2013-07-28 11:12:00,
2013-07-28 07:22:00,62.0,61.0,27.79,ESE,113,0.0,0.0,98,0.00,,,0.00,,2013-07-28 11:22:00,
2013-07-28 07:33:00,62.0,61.0,27.80,ESE,113,0.0,1.0,97,0.00,,,0.00,,2013-07-28 11:33:00,
2013-07-28 07:43:00,62.0,61.0,27.80,ESE,113,0.0,1.0,97,0.00,,,0.00,,2013-07-28 11:43:00,
2013-07-28 07:54:00,62.0,61.0,27.81,ESE,113,1.0,1.0,97,0.00,,,0.00,,2013-07-28 11:54:00,
2013-07-28 08:03:00,62.0,61.0,27.81,ESE,115,0.0,1.0,97,0.00,,,0.00,,2013-07-28 12:03:00,
2013-07-28 08:13:00,62.0,61.0,27.81,ESE,115,0.0,1.0,97,0.00,,,0.00,,2013-07-28 12:13:00,
2013-07-28 08:22:00,63.0,62.0,27.81,East,82,1.0,2.0,96,0.00,,,0.00,,2013-07-28 12:22:00,
2013-07-28 08:33:00,64.0,62.0,27.81,ESE,106,1.0,2.0,94,0.00,,,0.00,,2013-07-28 12:33:00,
2013-07-28 08:43:00,64.0,62.0,27.81,ESE,106,1.0,2.0,94,0.00,,,0.00,,2013-07-28 12:43:00,
2013-07-28 08:53:00,65.0,63.0,27.81,East,90,1.0,2.0,93,0.00,,,0.00,,2013-07-28 12:53:00,
2013-07-28 09:12:00,65.0,63.0,27.81,ESE,105,2.0,3.0,94,0.00,,,0.00,,2013-07-28 13:12:00,
2013-07-28 09:22:00,66.0,63.0,27.80,ENE,74,2.0,3.0,91,0.00,,,0.00,,2013-07-28 13:22:00,
2013-07-28 09:32:00,66.0,63.0,27.80,ESE,102,1.0,2.0,89,0.00,,,0.00,,2013-07-28 13:32:00,
2013-07-28 09:43:00,66.0,63.0,27.80,ESE,102,1.0,2.0,89,0.00,,,0.00,,2013-07-28 13:43:00,
2013-07-28 09:53:00,67.0,64.0,27.80,East,79,2.0,4.0,90,0.00,,,0.00,,2013-07-28 13:53:00,
2013-07-28 10:02:00,68.0,64.0,27.79,SE,146,1.0,4.0,86,0.00,,,0.00,,2013-07-28 14:02:00,
2013-07-28 10:12:00,68.0,64.0,27.79,SE,146,1.0,4.0,86,0.00,,,0.00,,2013-07-28 14:12:00,
2013-07-28 10:43:00,70.0,65.0,27.79,ENE,70,2.0,4.0,84,0.00,,,0.00,,2013-07-28 14:43:00,
2013-07-28 10:53:00,70.0,64.0,27.80,SSE,147,3.0,4.0,82,0.00,,,0.00,,2013-07-28 14:53:00,
2013-07-28 11:03:00,73.0,65.0,27.79,South,176,3.0,7.0,76,0.00,,,0.00,,2013-07-28 15:03:00,
2013-07-28 11:13:00,73.0,65.0,27.79,South,176,3.0,7.0,76,0.00,,,0.00,,2013-07-28 15:13:00,
2013-07-28 11:23:00,74.0,64.0,27.79,ESE,108,2.0,6.0,71,0.00,,,0.00,,2013-07-28 15:23:00,
2013-07-28 11:33:00,74.0,63.0,27.78,East,88,5.0,6.0,69,0.00,,,0.00,,2013-07-28 15:33:00,
2013-07-28 11:43:00,74.0,63.0,27.78,East,88,5.0,6.0,69,0.00,,,0.00,,2013-07-28 15:43:00,
2013-07-28 11:53:00,74.0,63.0,27.78,SW,236,2.0,5.0,69,0.00,,,0.00,,2013-07-28 15:53:00,
2013-07-28 12:03:00,75.0,62.0,27.78,South,186,1.0,3.0,64,0.00,,,0.00,,2013-07-28 16:03:00,
2013-07-28 12:12:00,75.0,62.0,27.78,South,186,1.0,3.0,64,0.00,,,0.00,,2013-07-28 16:12:00,
2013-07-28 12:22:00,76.0,64.0,27.78,SSW,212,1.0,5.0,67,0.00,,,0.00,,2013-07-28 16:22:00,
2013-07-28 12:33:00,77.0,65.0,27.77,East,79,1.0,7.0,66,0.00,,,0.00,,2013-07-28 16:33:00,
2013-07-28 12:43:00,77.0,65.0,27.77,East,79,1.0,7.0,66,0.00,,,0.00,,2013-07-28 16:43:00,
2013-07-28 12:53:00,76.0,66.0,27.77,ESE,110,5.0,8.0,71,0.00,,,0.00,,2013-07-28 16:53:00,
2013-07-28 13:02:00,76.0,65.0,27.77,SSE,148,4.0,7.0,68,0.00,,,0.00,,2013-07-28 17:02:00,
2013-07-28 13:13:00,76.0,65.0,27.77,SSE,148,4.0,7.0,68,0.00,,,0.00,,2013-07-28 17:13:00,
2013-07-28 13:23:00,76.0,65.0,27.77,ESE,115,6.0,8.0,69,0.00,,,0.00,,2013-07-28 17:23:00,
2013-07-28 13:33:00,77.0,64.0,27.77,SSE,166,5.0,8.0,64,0.00,,,0.00,,2013-07-28 17:33:00,
2013-07-28 13:43:00,77.0,64.0,27.77,SSE,166,5.0,8.0,64,0.00,,,0.00,,2013-07-28 17:43:00,
2013-07-28 13:53:00,77.0,63.0,27.76,East,87,6.0,9.0,63,0.00,,,0.00,,2013-07-28 17:53:00,
2013-07-28 14:03:00,78.0,65.0,27.76,ENE,70,3.0,9.0,64,0.00,,,0.00,,2013-07-28 18:03:00,
2013-07-28 14:13:00,78.0,65.0,27.76,ENE,70,3.0,9.0,64,0.00,,,0.00,,2013-07-28 18:13:00,
2013-07-28 14:23:00,79.0,63.0,27.77,SSE,150,3.0,7.0,58,0.00,,,0.00,,2013-07-28 18:23:00,
2013-07-28 14:33:00,80.0,64.0,27.77,East,95,5.0,8.0,59,0.00,,,0.00,,2013-07-28 18:33:00,
2013-07-28 14:43:00,80.0,64.0,27.77,East,95,5.0,8.0,59,0.00,,,0.00,,2013-07-28 18:43:00,
2013-07-28 14:52:00,81.0,65.0,27.77,SW,215,2.0,5.0,59,0.00,,,0.00,,2013-07-28 18:52:00,
2013-07-28 15:03:00,81.0,65.0,27.77,SSW,193,3.0,9.0,58,0.00,,,0.00,,2013-07-28 19:03:00,
2013-07-28 15:12:00,81.0,65.0,27.77,SSW,193,3.0,9.0,58,0.00,,,0.00,,2013-07-28 19:12:00,
2013-07-28 15:23:00,79.0,64.0,27.77,WSW,251,2.0,8.0,60,0.00,,,0.00,,2013-07-28 19:23:00,
2013-07-28 15:33:00,78.0,64.0,27.77,WSW,238,1.0,6.0,62,0.00,,,0.00,,2013-07-28 19:33:00,
2013-07-28 15:43:00,78.0,64.0,27.77,WSW,238,1.0,6.0,62,0.00,,,0.00,,2013-07-28 19:43:00,
2013-07-28 15:53:00,78.0,65.0,27.76,WSW,239,1.0,5.0,64,0.00,,,0.00,,2013-07-28 19:53:00,
2013-07-28 16:03:00,78.0,65.0,27.76,SE,129,4.0,7.0,65,0.00,,,0.00,,2013-07-28 20:03:00,
2013-07-28 16:13:00,78.0,65.0,27.76,SE,129,4.0,7.0,65,0.00,,,0.00,,2013-07-28 20:13:00,
2013-07-28 16:23:00,78.0,66.0,27.76,East,90,3.0,7.0,66,0.00,,,0.00,,2013-07-28 20:23:00,
2013-07-28 16:33:00,78.0,67.0,27.76,ESE,115,3.0,7.0,68,0.00,,,0.00,,2013-07-28 20:33:00,
2013-07-28 16:43:00,78.0,67.0,27.76,ESE,115,3.0,7.0,68,0.00,,,0.00,,2013-07-28 20:43:00,
2013-07-28 16:53:00,78.0,67.0,27.75,South,174,1.0,6.0,68,0.00,,,0.00,,2013-07-28 20:53:00,
2013-07-28 17:03:00,78.0,66.0,27.75,SE,137,2.0,4.0,67,0.00,,,0.00,,2013-07-28 21:03:00,
2013-07-28 17:13:00,78.0,66.0,27.75,SE,137,2.0,4.0,67,0.00,,,0.00,,2013-07-28 21:13:00,
2013-07-28 17:23:00,78.0,66.0,27.75,SSW,201,0.0,3.0,67,0.00,,,0.00,,2013-07-28 21:23:00,
2013-07-28 17:33:00,77.0,67.0,27.75,SE,131,1.0,3.0,71,0.00,,,0.00,,2013-07-28 21:33:00,
2013-07-28 17:44:00,77.0,67.0,27.75,SE,131,1.0,3.0,71,0.00,,,0.00,,2013-07-28 21:44:00,
2013-07-28 17:52:00,75.0,70.0,27.75,East,100,5.0,8.0,84,0.00,,,0.00,,2013-07-28 21:52:00,
2013-07-28 18:02:00,73.0,69.0,27.75,East,89,5.0,9.0,86,0.00,,,0.00,,2013-07-28 22:02:00,
2013-07-28 18:12:00,73.0,69.0,27.75,East,89,5.0,9.0,86,0.00,,,0.00,,2013-07-28 22:12:00,
2013-07-28 18:22:00,73.0,69.0,27.75,ESE,111,5.0,11.0,86,0.00,,,0.00,,2013-07-28 22:22:00,
2013-07-28 18:32:00,72.0,68.0,27.76,ESE,103,6.0,10.0,86,0.00,,,0.00,,2013-07-28 22:32:00,
2013-07-28 18:43:00,72.0,68.0,27.76,ESE,103,6.0,10.0,86,0.00,,,0.00,,2013-07-28 22:43:00,
2013-07-28 18:52:00,71.0,67.0,27.77,ESE,105,4.0,8.0,87,0.00,,,0.00,,2013-07-28 22:52:00,
2013-07-28 19:03:00,71.0,67.0,27.77,ESE,103,5.0,8.0,88,0.00,,,0.00,,2013-07-28 23:03:00,
2013-07-28 19:12:00,71.0,67.0,27.77,ESE,103,5.0,8.0,88,0.00,,,0.00,,2013-07-28 23:12:00,
2013-07-28 19:22:00,71.0,68.0,27.77,SE,125,3.0,8.0,89,0.00,,,0.00,,2013-07-28 23:22:00,
2013-07-28 19:33:00,70.0,67.0,27.78,East,79,5.0,9.0,89,0.00,,,0.00,,2013-07-28 23:33:00,
2013-07-28 19:43:00,70.0,67.0,27.78,East,79,5.0,9.0,89,0.00,,,0.00,,2013-07-28 23:43:00,
2013-07-28 19:53:00,70.0,67.0,27.78,ENE,76,5.0,12.0,90,0.00,,,0.00,,2013-07-28 23:53:00,
2013-07-28 20:03:00,69.0,67.0,27.78,East,83,4.0,6.0,92,0.00,,,0.00,,2013-07-29 00:03:00,
2013-07-28 20:22:00,69.0,67.0,27.79,SE,138,0.0,6.0,94,0.00,,,0.00,,2013-07-29 00:22:00,
2013-07-28 20:32:00,68.0,66.0,27.79,East,91,2.0,3.0,94,0.00,,,0.00,,2013-07-29 00:32:00,
2013-07-28 20:43:00,68.0,66.0,27.79,East,91,2.0,3.0,94,0.00,,,0.00,,2013-07-29 00:43:00,
2013-07-28 20:52:00,68.0,67.0,27.79,ESE,117,2.0,4.0,95,0.00,,,0.00,,2013-07-29 00:52:00,
2013-07-28 21:02:00,68.0,67.0,27.79,SE,131,1.0,1.0,95,0.00,,,0.00,,2013-07-29 01:02:00,
2013-07-28 21:14:00,68.0,67.0,27.79,SE,131,1.0,1.0,95,0.00,,,0.00,,2013-07-29 01:14:00,
2013-07-28 21:29:00,68.0,67.0,27.79,East,100,4.0,5.0,95,0.00,,,0.00,,2013-07-29 01:29:00,
2013-07-28 21:37:00,68.0,67.0,27.79,East,100,4.0,5.0,95,0.00,,,0.00,,2013-07-29 01:37:00,
2013-07-28 22:06:00,67.0,66.0,27.79,ESE,109,4.0,7.0,95,0.00,,,0.00,,2013-07-29 02:06:00,
2013-07-28 22:14:00,67.0,66.0,27.79,ESE,109,4.0,7.0,95,0.00,,,0.00,,2013-07-29 02:14:00,
2013-07-28 22:27:00,67.0,66.0,27.79,East,101,4.0,7.0,96,0.00,,,0.00,,2013-07-29 02:27:00,
2013-07-28 22:38:00,66.0,65.0,27.79,SE,129,5.0,8.0,96,0.00,,,0.00,,2013-07-29 02:38:00,
2013-07-28 22:47:00,66.0,65.0,27.79,SE,129,5.0,8.0,96,0.00,,,0.00,,2013-07-29 02:47:00,
2013-07-28 23:05:00,66.0,65.0,27.79,East,90,4.0,8.0,96,0.00,,,0.00,,2013-07-29 03:05:00,
2013-07-28 23:17:00,66.0,65.0,27.79,East,90,4.0,8.0,96,0.00,,,0.00,,2013-07-29 03:17:00,
2013-07-28 23:26:00,66.0,65.0,27.78,ESE,110,5.0,7.0,97,0.00,,,0.00,,2013-07-29 03:26:00,
2013-07-28 23:48:00,66.0,65.0,27.79,East,87,5.0,9.0,97,0.00,,,0.00,,2013-07-29 03:48:00,
2013-07-28 23:58:00,65.0,64.0,27.79,East,101,3.0,8.0,97,0.00,,,0.00,,2013-07-29 03:58:00,